STARLINK-35489, 65857

Orbit data source: Space-Track

STARLINK-35489, 65857 is a payload satellite owned by SpaceX/Seattle (US) in LEO that was launched on Fri, 03 Oct 2025 UTC via an FALCON 9 launch vehicle from the Air Force Western Test Range (AFWTR). Payload-class satellites include a variety of spacecraft equipped with specific instruments for various scientific and technological missions. These include communications satellites like Starlink; space stations such as the ISS; scientific satellites like the Hubble; Earth observation satellites from companies like Planet Labs, Umbra, and HawkEye 360; GPS; miniature CubeSats for education and research; and military/defense satellites.

Loading next visibility...
Identifier
65857, 2025-223D
Orbit
LEO
Country
Flag of USUS
Related business
Manufacturer
SpaceX/Seattle
Mission
Operational spacecraft
Bus & Motor
STARLINK V2MO, Unknown motor
Mass
575 kg wet, ~530 kg dry
Launch date (UTC)
2025-10-03 (2 weeks ago)
Launch vehicle
FALCON 9
Launch site
Air Force Western Test Range (AFWTR)
Object type
Payload
Rocket body
Debris
Shape & HBR
Unknown shape, 17.7 m
Radar Cross Section
RCS unknown

Expand to show TLE details & history
Last TLE update: 14 hours ago

TLE from 14 hours ago
0 STARLINK-35489
1 65857U 25223D   25290.51185787 -.00321634  00000-0 -24472-2 0  9997
2 65857  53.1514 243.5488 0003226 183.8184 176.2811 15.72496804  2220
Epoch: 2025-10-17T12:17Z
TLE epoch observation values (Epoch: 2025-10-17T12:17:04.519Z)
Latitude
-0.00004°
Longitude
33.02377°
Altitude
354.845 km
Speed
7.696 km/s
True Right ascension
16h 14m 11s
True Declination
0° 00' 00"
Sunlit
Object was in daylight at epoch
Visualization orbit readout
Latitude
Unknown
Longitude
Unknown
Altitude
Unknown
Speed
Unknown
Apparent Right ascension
Unknown
Apparent Declination
Unknown
Sunlit
N/A
Visualization observer readout
Local Sidereal Time
21:24:05
Azimuth
Unknown
Elevation
Unknown
Doppler factor
Unknown
Orbital elements
Apogee altitude
354.197 km
Perigee altitude
349.855 km
Semi-major axis
6,730.163 km
Eccentricity
0.00032
Inclination
53.1514°
RAAN
243.5488°
Arg. of periapsis
183.8184°
True anomaly
176.2835°
Mean anomaly
176.2811°
Eccentric anomaly
176.2823°
Mean motion
3.93102 °/min
Orbital period
91.58 mins
BSTAR
-0.0024472
Loading maneuver chart data...
Computing Atmospheric mass density...
Loading historical data...
Loading historical data...
Loading historical data...
Loading historical data...
Loading historical data...
Loading historical data...
Loading historical data...

Documentation

Showing up to 5 results
|